This is the latest recevied weather packets stored in our database for station/object WX4LTG. If no packets are shown the sender has not sent any weather packets the latest 1 day(s).
| Time | Temp. | Humidity | Pressure | Rain* | Wind** | Luminosity | Snow |
|---|---|---|---|---|---|---|---|
| 1777974123 | 19.44° C | 55% | 1011.6 hPa | 0 mm | 0 m/s | 0 W/m² | - |
| 1777973819 | 19.44° C | 55% | 1011.7 hPa | 0 mm | 0.89 m/s, 155° | 0 W/m² | - |
| 1777973517 | 19.44° C | 55% | 1011.7 hPa | 0 mm | 0 m/s | 0 W/m² | - |
| 1777973213 | 19.44° C | 55% | 1011.5 hPa | 0 mm | 0.45 m/s, 133° | 0 W/m² | - |
| 1777972912 | 19.44° C | 54% | 1011.7 hPa | 0 mm | 0 m/s | 0 W/m² | - |
| 1777972609 | 19.44° C | 54% | 1011.5 hPa | 0 mm | 1.79 m/s, 85° | 0 W/m² | - |
| 1777972306 | 19.44° C | 54% | 1011.7 hPa | 0 mm | 1.79 m/s, 148° | 0 W/m² | - |
| 1777972004 | 20° C | 53% | 1011.4 hPa | 0 mm | 1.34 m/s, 146° | 0 W/m² | - |
| 1777971702 | 20° C | 53% | 1011.8 hPa | 0 mm | 2.24 m/s, 158° | 0 W/m² | - |
| 1777971399 | 20° C | 52% | 1011.7 hPa | 0 mm | 0 m/s | 0 W/m² | - |
| 1777971098 | 20° C | 52% | 1011.7 hPa | 0 mm | 0.89 m/s, 177° | 0 W/m² | - |
| 1777970795 | 20° C | 51% | 1012 hPa | 0 mm | 1.34 m/s, 144° | 0 W/m² | - |
| 1777970493 | 20° C | 50% | 1011.8 hPa | 0 mm | 0.89 m/s, 150° | 0 W/m² | - |
| 1777970190 | 20° C | 49% | 1012 hPa | 0 mm | 0.89 m/s, 142° | 0 W/m² | - |
| 1777969887 | 20.56° C | 47% | 1011.8 hPa | 0 mm | 1.34 m/s, 166° | 0 W/m² | - |
| 1777969583 | 20.56° C | 48% | 1012 hPa | 0 mm | 0.89 m/s, 159° | 0 W/m² | - |
| 1777969280 | 20.56° C | 47% | 1011.7 hPa | 0 mm | 1.34 m/s, 170° | 0 W/m² | - |
| 1777968976 | 20.56° C | 46% | 1011.9 hPa | 0 mm | 0 m/s | 0 W/m² | - |
| 1777968674 | 20.56° C | 46% | 1012.1 hPa | 0 mm | 0 m/s | 0 W/m² | - |
| 1777968369 | 20.56° C | 45% | 1011.8 hPa | 0 mm | 0.89 m/s, 127° | 0 W/m² | - |
| 1777968066 | 20.56° C | 45% | 1011.9 hPa | 0 mm | 0.89 m/s, 184° | 0 W/m² | - |
| 1777967762 | 20.56° C | 45% | 1012.1 hPa | 0 mm | 3.58 m/s, 193° | 0 W/m² | - |
| 1777967459 | 20.56° C | 45% | 1011.9 hPa | 0 mm | 2.24 m/s, 116° | 0 W/m² | - |
| 1777967156 | 21.11° C | 44% | 1012 hPa | 0 mm | 0.89 m/s, 166° | 0 W/m² | - |
| 1777966853 | 21.11° C | 44% | 1012 hPa | 0 mm | 0.89 m/s, 175° | 0 W/m² | - |
* Rain latest hour (hover to see other rain measurements)
** Current wind speed in m/s (hover to see current wind gust speed)